Wind_Speed
43 42 42 42 42 42 41 41 42 42 42 43 42 42 41 41 41 41 40 39 39 38 37 37 36 36 35 35 34 35 34 35 35 35 35 34 34 34 34 34 34 34 35
42 42 43 42 42 43 43 41 42 42 42 42 42 42 42 42 43 43 42 40 40 40 39 38 37 37 37 36 36 36 36 36 36 36 35 35 35 35 34 34 34 35 35
43 43 43 43 42 42 42 42 41 41 42 42 42 41 41 43 43 42 41 40 40 40 39 38 38 38 38 37 36 36 37 37 37 37 36 36 35 35 34 34 35 36 36
43 43 43 42 42 42 42 42 41 41 42 42 43 43 41 42 42 41 40 40 40 40 39 39 38 38 37 37 37 37 37 37 37 37 37 37 37 36 35 35 36 36 36
42 42 42 42 42 42 42 42 42 42 41 41 42 43 42 41 41 40 41 40 39 40 39 39 38 37 37 36 37 37 37 37 37 37 37 37 37 37 36 36 35 36 37
41 41 41 42 42 42 42 43 43 43 43 42 42 43 42 42 41 40 40 40 39 39 39 39 39 38 37 36 36 37 37 38 38 37 38 37 37 37 37 36 36 36 37
41 41 41 41 43 43 42 42 42 42 43 43 42 43 43 43 42 42 40 39 38 38 38 39 39 39 38 37 36 36 36 38 38 38 37 37 37 37 37 37 37 37 37
40 41 41 41 42 42 42 42 43 42 43 42 42 42 42 42 42 42 41 39 38 39 40 39 38 38 39 38 37 36 37 38 38 37 37 37 37 37 37 38 38 38 38
40 40 40 40 41 42 42 43 43 44 43 42 42 42 42 42 42 41 41 40 39 39 39 40 40 39 38 37 36 36 37 37 37 37 36 36 37 37 37 38 39 39 39
39 40 39 39 40 41 42 43 44 44 44 44 43 42 42 42 42 42 42 42 41 39 39 39 39 39 38 38 37 36 37 36 36 36 36 36 36 35 36 37 39 39 40
37 38 38 39 39 41 42 43 43 43 43 44 43 43 43 43 43 43 43 42 41 40 38 38 38 37 37 37 37 37 36 36 37 37 37 37 36 37 37 38 39 39 40
35 37 37 39 40 40 41 42 43 43 42 42 42 43 43 43 44 43 42 42 41 40 39 38 37 38 37 36 37 37 37 37 37 37 36 37 37 38 38 38 39 40 41
33 34 35 37 39 39 40 41 42 43 42 42 42 42 43 44 44 43 42 42 42 40 39 38 38 37 37 37 37 37 37 37 37 37 37 37 37 37 38 39 40 41 41
32 33 34 36 37 37 38 39 41 42 42 42 42 41 42 42 42 43 42 42 41 41 40 38 38 37 37 37 38 37 37 37 36 36 37 37 37 37 38 39 40 41 42
30 31 31 33 34 35 35 36 38 40 41 42 41 41 42 42 42 42 42 41 41 40 40 39 39 38 37 37 37 37 37 37 36 36 36 36 37 37 38 39 40 41 42
30 31 31 31 32 33 34 35 36 38 38 40 40 41 41 41 41 41 42 41 40 40 39 39 38 38 37 36 36 37 37 36 36 36 36 35 36 37 38 39 40 42 42
31 31 31 32 32 32 33 34 35 36 37 38 39 39 39 39 39 40 40 40 40 39 39 38 38 38 38 37 36 36 37 37 36 36 35 35 36 37 38 39 40 41 42
30 31 32 32 32 32 32 33 35 36 36 37 38 38 38 37 38 38 39 40 40 39 38 37 37 37 37 37 36 36 36 36 36 36 36 36 38 38 38 39 39 40 41
28 29 30 30 31 32 32 33 34 35 35 36 37 37 37 37 37 37 38 39 39 39 38 37 37 36 36 36 36 36 36 35 35 36 36 37 38 38 39 38 38 39 41
28 28 29 29 30 30 31 32 33 34 34 34 34 35 36 37 37 37 37 37 38 39 39 38 37 37 37 36 36 35 35 35 35 35 36 36 37 37 38 37 38 39 40
30 30 31 31 30 30 30 31 32 32 33 34 34 34 35 36 36 36 36 36 37 37 38 38 38 38 37 36 36 36 36 36 36 36 36 36 36 36 37 37 38 39 39
30 30 31 31 31 31 30 31 31 31 32 32 33 33 34 35 35 36 36 36 36 36 37 37 37 37 37 37 37 36 36 36 36 36 36 35 35 35 37 37 38 38 37
28 29 30 30 31 31 31 31 31 31 32 32 32 32 33 35 35 35 35 35 36 36 36 37 37 37 36 36 37 37 36 36 36 35 35 34 35 36 36 37 37 36 35
26 27 28 29 30 30 31 32 31 31 32 32 32 33 33 34 35 35 35 35 35 35 35 36 36 36 36 36 35 36 36 35 35 34 34 34 34 35 36 35 34 33 32
25 25 26 28 29 30 31 32 31 31 31 31 31 32 32 34 34 34 34 34 34 34 34 34 35 35 35 34 34 34 33 33 33 33 32 32 32 33 33 32 30 30 30
24 24 25 26 27 29 31 32 32 31 31 31 30 31 31 32 32 32 33 33 33 32 33 33 33 33 33 32 32 32 31 31 31 31 31 31 31 31 30 28 28 28 28
Wind_Direction
233 234 234 235 234 234 235 236 236 237 237 237 238 239 239 241 242 243 245 247 249 250 252 255 259 262 264 268 271 271 272 275 278 279 281 283 285 286 287 287 288 290 291
232 233 233 234 235 235 235 236 236 237 237 237 239 239 239 240 241 243 244 246 249 250 253 255 258 262 264 266 270 271 272 274 276 279 280 282 284 285 286 287 288 290 291
232 233 233 232 233 233 234 236 236 236 237 238 239 241 241 241 242 243 245 247 249 251 253 255 258 261 264 266 268 271 272 274 276 277 279 281 282 283 284 286 287 289 291
232 233 232 233 234 233 234 235 236 236 237 238 238 240 242 242 242 242 245 247 250 251 253 256 259 261 262 266 268 270 272 274 276 277 278 280 281 283 283 284 286 289 290
234 233 233 232 234 233 234 236 236 236 237 238 239 240 241 242 241 242 244 247 251 252 254 256 259 262 264 266 268 270 272 273 275 276 278 279 280 282 283 283 286 288 290
235 235 234 232 233 232 235 237 237 237 238 239 240 240 241 241 242 243 244 248 250 253 255 257 258 261 264 265 267 269 271 272 274 275 277 279 280 282 283 283 284 288 290
236 236 236 235 234 232 234 236 237 237 239 240 241 241 241 241 242 243 244 247 250 252 254 257 259 260 262 265 267 268 271 272 274 275 277 278 281 282 283 284 285 287 289
236 237 238 238 236 235 235 236 236 237 238 239 240 240 241 241 242 243 244 246 249 251 254 257 259 260 262 264 266 269 270 271 273 274 276 278 280 282 284 284 286 287 289
237 238 240 240 239 237 236 237 237 237 238 239 239 239 240 242 242 244 245 247 249 252 255 258 260 261 262 263 267 270 271 270 272 274 276 278 280 282 283 285 287 289 291
239 240 242 242 241 239 238 238 238 238 238 238 239 239 240 242 243 244 246 247 249 252 255 257 258 260 261 263 266 269 270 271 272 274 276 279 281 283 285 286 288 291 294
242 241 241 242 242 240 239 239 238 238 238 239 240 241 241 242 243 245 247 247 249 251 254 256 258 259 261 262 264 267 270 272 274 274 277 279 281 283 285 287 290 292 295
241 241 242 242 241 241 240 239 238 238 237 238 240 242 242 243 244 245 246 247 248 250 253 255 257 259 261 263 265 267 269 272 274 274 277 279 280 282 284 288 291 293 296
241 241 242 243 242 241 241 240 238 238 238 238 239 241 242 243 245 245 246 247 249 250 252 255 257 259 262 263 266 268 269 271 273 274 276 278 280 282 285 288 291 293 296
243 244 244 243 242 241 240 239 238 238 239 239 240 240 242 244 246 246 246 247 249 251 252 254 256 260 262 264 266 267 267 269 272 275 276 278 279 281 285 289 291 294 296
244 244 243 242 242 241 240 239 238 238 239 240 241 242 242 244 246 246 247 248 250 252 253 253 256 260 263 265 267 267 268 270 273 275 276 278 279 282 286 289 292 294 297
244 244 242 240 240 241 240 239 238 237 238 239 241 242 244 245 246 247 248 249 251 252 252 253 256 259 262 265 266 268 269 270 272 274 276 279 282 284 287 290 292 295 297
244 243 241 240 241 242 241 239 239 238 239 239 241 242 243 245 246 246 247 248 250 252 253 254 257 259 261 263 265 268 269 269 272 274 276 280 284 287 289 290 293 295 298
245 243 241 241 242 243 242 241 241 240 240 242 243 244 245 246 246 246 246 248 250 251 252 253 256 258 261 263 265 267 268 270 272 273 276 281 284 287 290 291 293 296 298
247 244 243 241 242 243 243 243 242 241 241 244 245 245 246 247 248 247 246 248 250 251 252 254 255 257 260 262 264 266 267 270 272 275 278 281 284 287 289 291 294 296 298
246 245 242 241 241 242 242 243 242 241 242 243 245 246 247 248 248 247 247 249 250 250 252 253 255 257 260 262 263 265 268 270 273 277 280 283 285 287 289 291 294 296 298
249 248 244 242 243 243 243 243 242 242 243 244 245 246 247 248 248 248 248 249 250 250 251 253 255 258 260 261 264 266 268 270 275 277 280 283 284 287 290 292 295 297 298
250 249 246 244 244 243 243 244 243 243 244 245 246 246 247 247 248 248 248 249 251 252 252 253 255 257 259 262 264 267 269 272 275 278 280 282 284 288 291 293 295 297 298
250 247 245 244 244 243 242 242 242 243 244 245 246 247 247 247 247 248 248 250 252 254 254 254 254 256 259 262 264 267 269 271 274 277 279 281 284 289 291 294 296 297 298
248 246 245 244 244 243 242 241 242 243 243 245 246 247 248 247 247 248 249 250 252 254 255 254 254 256 259 262 265 268 269 270 272 276 279 282 285 289 292 295 295 297 299
249 247 245 245 245 244 241 240 241 243 243 244 246 246 247 247 247 247 248 249 251 252 253 254 254 256 259 262 264 266 268 270 270 274 278 283 287 289 291 292 293 296 298
251 249 246 246 246 245 243 242 242 244 244 244 245 246 247 248 248 248 248 249 250 252 254 255 255 256 258 261 264 265 266 268 271 274 278 283 286 288 289 289 290 293 297
Height
5693 5697 5701 5705 5710 5714 5719 5723 5727 5732 5736 5740 5744 5747 5751 5755 5759 5762 5765 5768 5771 5773 5776 5778 5780 5781 5783 5784 5784 5785 5785 5785 5785 5784 5784 5783 5782 5781 5780 5778 5777 5775 5774
5684 5689 5693 5698 5702 5707 5711 5715 5719 5724 5728 5732 5735 5738 5742 5746 5750 5753 5756 5759 5762 5765 5768 5770 5772 5773 5775 5775 5776 5777 5777 5777 5777 5777 5776 5776 5775 5773 5772 5771 5769 5767 5766
5676 5681 5685 5690 5694 5699 5703 5708 5712 5716 5720 5723 5727 5730 5733 5737 5741 5744 5748 5751 5754 5757 5760 5762 5764 5765 5766 5767 5768 5768 5769 5769 5769 5768 5768 5768 5767 5767 5766 5763 5762 5760 5758
5667 5672 5676 5681 5686 5691 5695 5699 5703 5708 5712 5715 5719 5722 5725 5729 5733 5736 5740 5743 5746 5749 5751 5753 5755 5756 5758 5759 5760 5760 5760 5760 5760 5760 5759 5759 5759 5758 5758 5756 5754 5752 5750
5659 5663 5668 5673 5678 5682 5686 5691 5695 5699 5704 5707 5711 5714 5717 5721 5725 5728 5732 5735 5738 5740 5743 5745 5747 5748 5750 5751 5751 5752 5752 5752 5752 5751 5751 5750 5750 5749 5749 5748 5747 5744 5742
5652 5656 5660 5664 5669 5673 5678 5683 5687 5691 5696 5699 5703 5706 5709 5713 5716 5720 5724 5727 5730 5732 5735 5737 5738 5740 5742 5742 5743 5743 5743 5743 5743 5743 5743 5742 5742 5741 5740 5739 5738 5737 5734
5644 5649 5652 5656 5661 5665 5670 5674 5679 5683 5687 5691 5695 5698 5701 5705 5708 5712 5716 5719 5721 5724 5726 5728 5730 5732 5733 5734 5734 5735 5735 5735 5735 5735 5734 5734 5733 5732 5731 5730 5729 5728 5727
5636 5640 5644 5648 5652 5657 5662 5666 5670 5674 5678 5682 5686 5690 5693 5696 5700 5704 5707 5710 5713 5715 5718 5720 5722 5723 5725 5726 5726 5726 5726 5727 5726 5726 5726 5725 5724 5723 5722 5721 5720 5719 5718
5628 5632 5636 5640 5644 5648 5653 5657 5661 5666 5670 5674 5677 5681 5684 5688 5692 5695 5698 5702 5705 5707 5710 5712 5713 5715 5716 5718 5718 5718 5718 5718 5718 5718 5718 5717 5716 5715 5713 5712 5710 5709 5708
5620 5624 5628 5632 5636 5640 5644 5648 5652 5656 5661 5665 5669 5672 5676 5679 5683 5687 5690 5693 5696 5699 5701 5703 5705 5707 5708 5709 5710 5710 5710 5710 5710 5710 5710 5709 5708 5706 5705 5703 5701 5699 5697
5612 5616 5620 5623 5627 5631 5635 5639 5643 5647 5652 5656 5660 5664 5667 5671 5674 5678 5681 5684 5688 5690 5693 5695 5696 5698 5700 5701 5701 5701 5702 5702 5702 5702 5701 5700 5699 5698 5697 5695 5693 5690 5688
5604 5608 5611 5615 5619 5622 5626 5630 5634 5639 5643 5647 5651 5654 5658 5662 5665 5669 5672 5676 5679 5681 5684 5686 5688 5690 5691 5692 5693 5693 5693 5694 5693 5693 5692 5692 5691 5689 5688 5686 5684 5681 5678
5597 5600 5603 5606 5610 5614 5617 5621 5626 5630 5634 5638 5642 5646 5649 5653 5656 5660 5663 5666 5669 5672 5675 5677 5679 5681 5682 5683 5684 5685 5685 5685 5684 5684 5684 5683 5682 5680 5679 5677 5675 5672 5669
5590 5593 5595 5598 5602 5605 5609 5613 5616 5621 5625 5629 5633 5637 5641 5644 5647 5650 5654 5657 5660 5663 5666 5668 5670 5672 5673 5674 5675 5675 5676 5676 5675 5675 5674 5674 5673 5671 5670 5668 5666 5663 5660
5582 5585 5588 5591 5594 5597 5601 5604 5607 5612 5616 5620 5624 5628 5631 5635 5638 5641 5644 5648 5651 5654 5656 5659 5661 5663 5664 5665 5666 5666 5667 5667 5666 5666 5665 5665 5664 5662 5661 5659 5656 5653 5650
5575 5578 5581 5583 5586 5589 5593 5596 5599 5603 5607 5611 5615 5619 5622 5626 5629 5632 5635 5639 5642 5645 5647 5650 5652 5654 5655 5656 5656 5657 5658 5658 5658 5657 5657 5656 5655 5653 5651 5649 5646 5643 5640
5568 5571 5573 5576 5579 5582 5585 5588 5591 5595 5599 5603 5606 5610 5613 5616 5619 5623 5626 5629 5633 5636 5638 5640 5642 5644 5646 5647 5648 5648 5649 5649 5649 5649 5648 5647 5646 5644 5642 5640 5637 5633 5629
5561 5563 5566 5569 5571 5574 5577 5580 5583 5586 5590 5594 5597 5601 5604 5607 5610 5613 5617 5620 5623 5626 5629 5631 5633 5635 5636 5637 5638 5639 5640 5640 5640 5640 5640 5639 5637 5635 5633 5631 5628 5625 5621
5554 5556 5558 5561 5563 5566 5569 5572 5575 5578 5582 5585 5588 5592 5595 5598 5601 5604 5608 5611 5614 5617 5619 5622 5624 5626 5627 5628 5629 5630 5631 5631 5631 5631 5631 5630 5628 5626 5624 5623 5620 5617 5613
5547 5549 5551 5553 5556 5559 5561 5564 5567 5570 5574 5577 5580 5583 5586 5589 5593 5596 5599 5601 5604 5607 5610 5612 5615 5616 5618 5619 5620 5621 5623 5623 5623 5622 5622 5620 5619 5617 5615 5613 5611 5608 5604
5539 5541 5543 5546 5548 5551 5554 5557 5559 5562 5565 5568 5571 5575 5578 5581 5584 5587 5590 5592 5595 5598 5600 5603 5606 5607 5609 5610 5612 5613 5614 5614 5614 5614 5613 5611 5610 5608 5606 5604 5601 5598 5595
5531 5533 5535 5538 5541 5543 5546 5549 5552 5555 5557 5560 5563 5566 5569 5572 5575 5578 5581 5583 5586 5589 5591 5594 5596 5598 5600 5601 5603 5604 5604 5605 5605 5605 5604 5603 5601 5600 5598 5595 5592 5589 5585
5524 5526 5528 5531 5533 5536 5538 5541 5544 5547 5549 5552 5555 5557 5560 5563 5566 5569 5572 5575 5577 5580 5582 5585 5587 5589 5591 5592 5594 5595 5595 5596 5596 5596 5595 5594 5593 5591 5589 5586 5583 5580 5577
5517 5519 5521 5523 5525 5528 5530 5533 5536 5539 5541 5544 5546 5549 5551 5554 5557 5560 5563 5566 5568 5571 5573 5575 5578 5580 5582 5583 5585 5586 5586 5587 5587 5587 5587 5585 5584 5582 5580 5577 5575 5572 5569
5510 5512 5513 5516 5518 5520 5522 5525 5528 5531 5533 5535 5537 5540 5542 5545 5548 5551 5554 5557 5560 5562 5564 5566 5569 5571 5573 5574 5575 5576 5577 5578 5578 5578 5578 5577 5576 5574 5572 5569 5567 5564 5562
5504 5505 5506 5508 5510 5512 5514 5517 5520 5523 5525 5527 5530 5532 5534 5537 5540 5543 5546 5548 5551 5553 5555 5558 5560 5562 5564 5565 5566 5567 5568 5569 5570 5570 5569 5569 5568 5566 5564 5562 5560 5558 5555